This is the latest recevied weather packets stored in our database for station/object K7TUS-6. If no packets are shown the sender has not sent any weather packets the latest 10 day(s).
| Time | Temp. | Humidity | Pressure | Rain* | Wind** | Luminosity | Snow |
|---|---|---|---|---|---|---|---|
| 1777858506 | 12.78° C | 1% | 982.3 hPa | - | - | - | - |
| 1777858206 | 12.78° C | 1% | 982 hPa | - | - | - | - |
| 1777857905 | 12.78° C | 1% | 982.4 hPa | - | - | - | - |
| 1777857605 | 13.33° C | 1% | 981.4 hPa | - | - | - | - |
| 1777857304 | 13.89° C | 1% | 982.7 hPa | - | - | - | - |
| 1777857004 | 13.89° C | 1% | 983.4 hPa | - | - | - | - |
| 1777856409 | 13.89° C | 1% | 983.1 hPa | - | - | - | - |
| 1777856108 | 14.44° C | 1% | 983 hPa | - | - | - | - |
| 1777855808 | 15.56° C | 1% | 983.2 hPa | - | - | - | - |
| 1777855507 | 15° C | 1% | 983.2 hPa | - | - | - | - |
| 1777855206 | 15.56° C | 1% | 983.3 hPa | - | - | - | - |
| 1777854906 | 15.56° C | 1% | 982.4 hPa | - | - | - | - |
| 1777854305 | 16.11° C | 1% | 983.1 hPa | - | - | - | - |
| 1777854007 | 17.22° C | 1% | 983 hPa | - | - | - | - |
| 1777853707 | 17.78° C | 1% | 982.1 hPa | - | - | - | - |
| 1777853406 | 17.78° C | 1% | 982.9 hPa | - | - | - | - |
| 1777853105 | 17.78° C | 1% | 983.5 hPa | - | - | - | - |
| 1777852805 | 18.89° C | 1% | 982.8 hPa | - | - | - | - |
| 1777852504 | 19.44° C | 1% | 983.7 hPa | - | - | - | - |
| 1777852203 | 20° C | 1% | 984 hPa | - | - | - | - |
| 1777851903 | 20.56° C | 1% | 984 hPa | - | - | - | - |
| 1777851608 | 20.56° C | 1% | 984 hPa | - | - | - | - |
| 1777851307 | 20.56° C | 1% | 984 hPa | - | - | - | - |
| 1777851007 | 20.56° C | 1% | 983.1 hPa | - | - | - | - |
| 1777850706 | 20.56° C | 1% | 982.8 hPa | - | - | - | - |
* Rain since midnight (hover to see other rain measurements)
** Current wind speed in m/s (hover to see current wind gust speed)